Powrót do katalogu

COSMOS 1687

AktywnyMilitariaHEO
NORAD 16103·PAYLOAD·🇷🇺 Russia

Wystrzelony Sep 30, 1985 z Plesetsk Cosmodrome

Loading…

Następne Przeloty (najbliższe 24 godziny)

TLE

ŚwieżeSource: Space-Track

Epoka: Sep 9, 2026, 04:32 UTC

1 16103U 85088A   26252.18895904 -.00000586  00000-0  00000-0 0  9991
2 16103  72.0632   5.6040 5513934 335.0345   6.6790  2.00707377299945

Śledź COSMOS 1687 w czasie rzeczywistym z AllMySat

Download on the App Store